TimeAKDT,TemperatureF,Dew PointF,Humidity,Sea Level PressureIn,VisibilityMPH,Wind Direction,Wind SpeedMPH,Gust SpeedMPH,PrecipitationIn,Events,Conditions,WindDirDegrees,DateUTC
12:53 AM,25.0,17.1,72,30.06,10.0,North,9.2,-,N/A,,Clear,10,2012-10-28 08:53:00
1:53 AM,24.1,17.1,75,30.05,10.0,North,11.5,-,N/A,,Clear,360,2012-10-28 09:53:00
2:53 AM,23.0,17.1,78,30.05,10.0,North,10.4,-,N/A,,Clear,360,2012-10-28 10:53:00
3:53 AM,23.0,17.1,78,30.04,10.0,North,8.1,-,N/A,,Clear,10,2012-10-28 11:53:00
4:53 AM,21.9,17.1,82,30.04,10.0,North,9.2,-,N/A,,Clear,10,2012-10-28 12:53:00
5:53 AM,21.0,17.1,85,30.04,10.0,North,8.1,-,N/A,,Clear,10,2012-10-28 13:53:00
6:53 AM,21.0,16.0,81,30.04,10.0,North,10.4,-,N/A,,Clear,350,2012-10-28 14:53:00
7:53 AM,19.9,15.1,81,30.03,10.0,North,10.4,-,N/A,,Clear,360,2012-10-28 15:53:00
8:53 AM,19.9,15.1,81,30.03,10.0,North,11.5,-,N/A,,Clear,350,2012-10-28 16:53:00
9:53 AM,19.0,14.0,81,30.04,10.0,North,11.5,-,N/A,,Clear,350,2012-10-28 17:53:00
10:53 AM,21.9,16.0,78,30.04,10.0,North,12.7,-,N/A,,Clear,350,2012-10-28 18:53:00
11:53 AM,24.1,16.0,71,30.04,10.0,North,11.5,-,N/A,,Clear,360,2012-10-28 19:53:00
12:53 PM,28.0,17.1,63,30.04,10.0,North,10.4,-,N/A,,Clear,10,2012-10-28 20:53:00
1:53 PM,30.9,18.0,59,30.04,10.0,North,9.2,-,N/A,,Clear,10,2012-10-28 21:53:00
2:53 PM,32.0,19.0,59,30.05,10.0,North,9.2,-,N/A,,Clear,10,2012-10-28 22:53:00
3:53 PM,33.1,18.0,54,30.04,10.0,North,10.4,-,N/A,,Clear,10,2012-10-28 23:53:00
4:53 PM,33.1,19.0,56,30.04,10.0,NNE,6.9,-,N/A,,Clear,20,2012-10-29 00:53:00
5:53 PM,30.9,19.0,61,30.04,10.0,NNW,6.9,-,N/A,,Clear,340,2012-10-29 01:53:00
6:53 PM,27.0,18.0,69,30.05,10.0,North,4.6,-,N/A,,Clear,360,2012-10-29 02:53:00
7:53 PM,25.0,18.0,75,30.05,10.0,North,6.9,-,N/A,,Clear,350,2012-10-29 03:53:00
8:53 PM,24.1,18.0,77,30.06,10.0,North,8.1,-,N/A,,Clear,350,2012-10-29 04:53:00
9:53 PM,24.1,17.1,75,30.06,10.0,NNW,6.9,-,N/A,,Clear,340,2012-10-29 05:53:00
10:53 PM,23.0,17.1,78,30.06,10.0,North,6.9,-,N/A,,Clear,350,2012-10-29 06:53:00
11:53 PM,23.0,17.1,78,30.07,10.0,North,6.9,-,N/A,,Clear,360,2012-10-29 07:53:00